Location: Blangy-Tronville
(49.8790°N, 2.4226°E)
Time: 21:41:26
(UTC+00:00)

Cosmos 1954 Rocket - Pass Details

Date: 18 November 2025
Orbit: 748 x 776 km, 74.0° (Epoch: 05 December)

Event Time Altitude Azimuth Distance (km) Brightness Sun altitude
Rises 18:06:32 0° 196° (SSW) 3,237 7.6 -19.6°
Reaches altitude 10° 18:08:55 10° 195° (SSW) 2,311 6.7 -20.0°
Maximum altitude 18:14:09 76° 111° (ESE) 797 3.9 -20.8°
Enters shadow 18:16:51 29° 30° (NNE) 1,378 5.0 -21.3°
